Wind_Speed
44 44 45 45 44 44 43 43 44 45 46 47 47 47 48 49 50 51 52 53 54 54 55 55 56 58 59 59 58 57 56 55 54 53 52 52 51 50 49 48 47 47
47 46 46 46 46 45 45 46 47 47 48 48 48 49 50 51 52 54 54 55 56 57 57 57 57 58 60 61 61 60 59 57 56 56 55 54 52 50 49 48 48 48
49 48 47 47 47 47 48 48 49 50 50 50 49 50 51 53 54 56 57 58 58 59 59 58 58 59 61 62 62 62 61 59 58 57 56 53 52 50 49 49 50 50
51 50 50 49 49 50 50 51 51 52 52 52 52 53 54 54 56 57 59 60 61 61 60 59 58 59 61 63 63 62 62 60 59 57 55 54 53 52 51 51 51 52
52 52 53 52 52 52 53 53 53 54 54 55 55 56 57 57 58 59 60 61 62 62 61 60 59 59 61 63 63 62 62 60 58 57 57 56 55 53 52 53 54 55
54 55 55 54 55 55 55 55 55 56 57 58 58 59 59 60 61 62 62 62 62 63 62 61 60 60 61 62 62 61 60 59 59 59 58 58 56 55 55 56 57 58
56 56 56 57 57 57 57 57 58 59 60 60 60 60 62 63 63 63 64 63 63 63 63 62 61 61 61 61 59 58 59 60 60 60 59 59 58 57 58 60 61 62
57 58 58 58 59 59 59 59 61 62 63 62 62 62 63 63 64 65 65 65 64 64 64 63 62 61 60 59 59 60 61 61 60 60 59 58 58 60 62 63 65 66
60 61 62 62 61 60 60 61 63 64 64 63 63 63 63 64 65 66 66 67 66 65 65 64 63 62 61 61 61 63 63 62 61 60 59 58 59 61 63 65 67 68
64 64 65 64 63 62 62 63 64 64 64 63 62 62 63 64 66 68 68 68 68 67 67 66 65 64 64 64 64 65 65 64 63 61 60 60 61 63 65 66 68 70
65 66 66 66 65 64 63 64 64 64 63 62 62 62 63 65 67 68 68 68 68 68 69 69 68 67 67 67 67 67 66 65 63 62 61 62 63 65 66 68 70 70
65 65 65 64 63 63 62 63 63 62 60 60 61 63 64 66 67 68 68 68 68 69 70 71 71 71 70 69 69 67 66 64 63 63 63 64 65 66 68 70 71 70
62 61 59 58 58 58 58 59 59 59 59 60 62 64 65 66 67 68 67 68 68 69 70 71 73 73 72 71 69 67 66 65 64 64 64 65 66 67 69 71 70 69
57 58 58 58 58 58 60 61 63 64 64 64 65 66 67 67 68 68 68 69 69 69 69 71 72 72 72 71 69 68 67 66 65 65 65 66 67 68 70 70 69 68
58 59 59 60 62 63 64 65 66 67 67 66 66 67 68 69 70 70 70 70 70 70 70 71 72 72 72 71 70 68 67 66 66 66 66 67 68 69 70 70 69 68
64 65 65 66 68 69 68 67 66 66 66 66 67 69 70 71 71 71 71 71 71 71 71 71 71 71 70 69 67 66 66 66 66 67 67 68 69 70 70 69 68 66
75 74 74 75 75 72 69 66 66 67 68 68 69 71 73 74 73 73 72 73 72 72 72 71 70 69 67 65 64 64 64 65 65 66 67 68 69 70 69 67 64 62
82 83 82 79 74 69 66 66 68 69 69 70 71 73 75 75 75 75 75 76 76 75 73 71 69 67 65 64 63 63 64 65 65 67 68 69 70 69 67 63 61 60
83 83 81 76 71 67 66 68 70 71 71 72 74 76 76 76 76 76 76 77 77 76 73 70 68 66 65 64 63 64 64 66 67 68 69 70 69 67 64 61 59 58
79 78 76 73 70 68 68 70 72 73 75 75 76 77 77 76 75 75 75 75 75 73 71 69 68 66 65 64 64 65 66 67 68 70 70 69 67 64 62 59 58 58
75 75 73 72 71 70 71 73 75 76 77 76 76 75 75 74 74 73 73 72 71 70 69 68 66 65 65 65 66 67 68 70 70 70 68 67 65 63 61 59 58 57
76 76 75 74 74 75 77 78 79 78 76 75 74 73 73 72 71 70 69 68 67 67 67 66 65 65 66 67 68 69 70 71 70 69 68 67 64 61 59 59 57 55
78 79 79 78 78 80 82 83 81 79 76 75 74 74 73 72 70 68 66 65 65 65 66 66 66 66 67 69 69 70 71 71 70 70 68 65 61 59 58 58 56 54
80 80 81 81 81 83 84 83 79 76 74 73 74 74 74 72 70 69 67 65 64 64 65 66 66 68 70 70 70 71 70 71 71 69 65 61 58 57 57 55 54 53
79 80 79 80 80 81 80 77 74 71 70 69 70 71 73 73 72 71 69 66 64 63 64 65 67 69 71 70 70 71 70 70 68 65 62 59 57 56 55 53 53 53
73 75 74 73 73 74 74 74 73 72 70 69 70 72 74 75 76 75 72 68 65 64 64 65 67 70 72 70 70 70 70 68 66 64 62 59 57 56 54 54 55 54
Wind_Direction
271 272 273 272 271 271 272 274 275 275 276 276 277 278 279 280 280 281 282 283 282 282 282 283 283 283 284 283 283 281 280 280 279 278 277 277 276 276 276 275 276 276
271 271 271 271 270 270 270 271 273 273 274 275 276 278 280 281 281 282 282 283 283 283 283 283 283 282 282 282 281 280 279 279 279 278 278 277 276 275 275 275 276 277
271 271 271 270 269 269 269 271 273 274 275 275 276 278 279 280 281 283 283 283 283 283 282 282 281 280 280 280 279 278 278 277 278 278 277 276 275 274 276 277 278 280
271 271 270 270 269 269 270 273 274 275 275 276 276 277 278 279 280 282 282 283 284 284 283 281 280 279 279 278 277 276 275 275 276 276 275 274 275 276 277 279 280 281
268 268 268 268 268 268 269 271 272 273 274 275 275 277 278 279 281 281 282 283 283 283 282 281 279 278 277 277 276 274 272 272 272 272 273 274 275 276 278 280 281 283
266 266 266 266 265 266 267 269 270 272 273 274 275 277 279 280 282 283 283 283 282 282 281 280 279 277 276 274 273 271 269 269 269 271 273 274 275 275 277 280 282 284
266 266 266 266 266 267 269 270 271 272 273 273 275 277 279 280 282 282 282 282 282 281 280 279 277 276 273 271 269 267 267 267 269 271 273 274 274 274 277 279 281 284
265 266 267 267 268 270 271 271 271 271 272 273 275 276 278 279 281 281 281 281 280 279 278 277 275 273 270 267 267 267 267 268 270 272 273 274 274 274 275 277 279 281
264 265 266 267 268 269 270 270 270 270 270 272 273 275 277 280 281 282 282 281 280 279 277 275 273 271 268 265 265 267 268 269 271 272 273 274 275 275 275 276 277 279
264 264 265 265 266 268 269 269 268 268 270 271 273 275 278 281 282 283 283 282 281 279 277 274 272 270 267 265 265 267 268 270 271 272 274 275 276 277 277 277 278 279
265 265 265 265 266 267 268 268 268 269 270 272 274 276 278 280 282 283 283 281 280 278 276 274 272 270 268 267 266 267 269 270 272 273 274 276 277 278 279 279 279 280
266 267 268 268 268 269 269 268 268 269 270 273 274 275 276 277 279 279 279 278 277 276 275 273 272 271 269 268 268 268 270 272 273 274 276 277 279 280 280 280 280 281
264 265 268 269 270 271 271 271 271 272 273 274 273 273 274 275 275 275 274 272 272 272 271 271 270 270 269 269 268 269 270 272 274 276 277 278 279 280 280 280 280 281
262 263 265 267 269 271 273 276 277 277 276 275 274 274 274 274 274 273 271 269 269 269 269 268 268 269 268 268 268 269 271 272 274 276 277 279 279 279 279 278 279 280
264 265 265 267 270 272 275 278 278 277 276 275 274 274 273 273 273 272 271 269 268 267 267 267 267 267 266 266 267 269 270 272 274 276 277 278 278 277 277 277 278 278
268 268 269 271 273 276 277 277 276 274 273 273 272 272 272 271 270 270 269 268 267 267 266 266 266 266 266 266 267 269 270 272 274 275 276 276 276 275 275 275 275 276
273 273 273 275 276 277 275 273 271 270 270 270 271 271 270 270 269 269 268 268 267 267 266 266 266 266 267 268 269 270 271 272 273 273 274 274 274 274 273 272 273 274
275 276 276 277 276 274 270 267 266 266 267 267 268 268 268 268 268 268 268 267 267 267 267 267 267 267 268 270 271 272 272 272 272 273 273 272 272 271 270 270 272 273
275 275 275 274 272 269 265 264 264 265 265 265 264 264 264 265 266 267 267 267 266 266 266 266 267 268 270 271 271 271 271 272 273 272 271 269 269 268 269 270 271 271
273 273 271 269 267 264 262 262 264 265 264 263 262 262 263 263 264 264 264 265 265 266 266 267 268 269 270 270 270 270 271 271 271 269 267 266 267 268 269 269 268 268
268 268 266 265 264 263 262 262 263 263 263 261 260 260 260 261 261 262 263 265 266 267 268 269 269 270 271 271 271 271 271 269 268 266 265 266 268 268 268 267 266 267
264 263 263 262 263 263 263 262 262 261 261 260 259 259 260 261 263 265 266 267 268 269 269 269 269 270 270 271 271 270 269 268 267 266 267 267 267 266 266 266 266 267
261 261 259 259 259 260 259 259 260 260 260 260 261 261 263 265 267 268 269 269 270 270 269 269 269 269 270 270 270 269 269 268 268 267 266 265 264 264 265 265 266 267
261 260 259 258 257 257 256 257 257 258 259 261 262 264 267 269 271 272 272 272 272 271 270 270 269 268 268 269 269 269 269 269 267 265 263 262 262 263 263 264 265 266
261 259 258 256 255 254 255 256 257 259 262 264 266 268 271 273 276 276 276 275 273 272 270 269 267 267 267 268 269 269 268 266 263 261 260 260 261 262 262 262 262 263
258 257 256 256 256 258 259 261 263 266 268 270 271 271 273 275 278 278 278 275 273 271 270 269 268 267 267 267 267 266 263 260 258 258 259 260 260 259 259 259 260 262
Height
5699 5699 5699 5699 5699 5698 5698 5698 5698 5698 5697 5697 5697 5697 5696 5696 5695 5695 5695 5694 5694 5693 5692 5691 5689 5688 5687 5687 5687 5687 5687 5686 5686 5685 5684 5684 5683 5682 5681 5680 5680 5680
5692 5692 5692 5692 5692 5691 5691 5691 5691 5691 5691 5690 5690 5690 5689 5689 5688 5688 5688 5687 5687 5686 5685 5684 5683 5682 5681 5680 5680 5679 5679 5679 5678 5678 5678 5677 5676 5675 5674 5673 5673 5672
5685 5685 5685 5685 5685 5684 5684 5684 5684 5684 5684 5683 5683 5683 5682 5682 5682 5681 5680 5680 5679 5679 5678 5678 5677 5675 5674 5673 5673 5672 5672 5672 5671 5671 5670 5670 5669 5668 5667 5666 5665 5665
5678 5678 5678 5677 5677 5677 5677 5678 5677 5677 5676 5676 5676 5675 5675 5675 5675 5674 5673 5672 5672 5671 5671 5670 5670 5668 5667 5667 5666 5666 5665 5665 5664 5664 5663 5662 5661 5661 5660 5659 5658 5657
5672 5671 5671 5670 5670 5670 5670 5671 5670 5669 5669 5669 5668 5668 5668 5667 5667 5666 5666 5665 5664 5663 5663 5662 5662 5661 5660 5659 5659 5659 5658 5658 5657 5656 5655 5655 5654 5653 5652 5651 5650 5649
5664 5664 5664 5663 5663 5663 5663 5664 5663 5662 5661 5661 5660 5660 5660 5659 5658 5658 5657 5656 5656 5655 5655 5655 5654 5654 5653 5652 5652 5652 5651 5650 5649 5648 5648 5647 5647 5646 5645 5644 5643 5642
5656 5656 5656 5656 5656 5655 5656 5656 5655 5654 5653 5653 5652 5652 5651 5650 5650 5649 5648 5648 5648 5647 5647 5647 5646 5646 5645 5645 5644 5644 5643 5642 5642 5641 5641 5640 5639 5639 5638 5636 5635 5635
5648 5648 5648 5648 5647 5647 5648 5648 5646 5646 5645 5644 5645 5644 5643 5642 5641 5640 5639 5639 5639 5639 5638 5638 5638 5638 5638 5637 5636 5635 5635 5634 5634 5634 5633 5633 5632 5631 5630 5629 5628 5627
5641 5641 5640 5640 5640 5640 5640 5639 5638 5637 5636 5636 5636 5635 5634 5633 5632 5631 5631 5630 5630 5630 5630 5629 5629 5629 5629 5629 5627 5626 5626 5626 5626 5625 5625 5625 5624 5623 5622 5621 5620 5618
5633 5633 5632 5632 5632 5631 5631 5630 5629 5628 5628 5628 5627 5626 5625 5624 5622 5622 5622 5622 5622 5621 5621 5621 5621 5620 5620 5620 5619 5617 5617 5616 5616 5616 5616 5615 5615 5614 5612 5611 5610 5609
5623 5623 5623 5623 5622 5622 5621 5621 5619 5619 5619 5618 5618 5617 5616 5614 5613 5613 5613 5613 5613 5613 5612 5612 5612 5612 5611 5611 5610 5609 5608 5608 5608 5607 5606 5606 5605 5604 5603 5602 5600 5599
5614 5613 5613 5613 5612 5612 5612 5611 5610 5610 5610 5609 5608 5607 5606 5605 5604 5604 5603 5603 5603 5603 5603 5603 5603 5603 5602 5602 5601 5600 5600 5599 5599 5598 5597 5596 5596 5594 5593 5592 5591 5589
5605 5604 5603 5603 5602 5603 5602 5601 5601 5600 5600 5599 5598 5597 5596 5595 5595 5594 5594 5594 5593 5593 5593 5593 5593 5593 5593 5593 5592 5591 5591 5590 5589 5588 5587 5586 5586 5585 5583 5582 5581 5580
5595 5593 5593 5593 5593 5593 5592 5591 5591 5590 5589 5589 5588 5587 5587 5586 5585 5584 5584 5583 5583 5583 5583 5583 5583 5584 5584 5583 5582 5581 5581 5580 5579 5578 5577 5576 5575 5574 5573 5572 5571 5570
5584 5583 5583 5583 5583 5583 5582 5581 5581 5579 5579 5579 5579 5578 5577 5576 5576 5575 5574 5574 5573 5573 5573 5572 5573 5573 5573 5572 5571 5571 5570 5570 5570 5569 5567 5566 5565 5564 5563 5561 5560 5559
5573 5573 5573 5573 5573 5573 5572 5571 5570 5569 5569 5569 5569 5569 5568 5567 5566 5566 5565 5565 5564 5563 5563 5563 5563 5563 5562 5561 5560 5560 5560 5559 5559 5558 5557 5556 5554 5553 5552 5551 5550 5549
5560 5561 5562 5562 5563 5563 5562 5562 5561 5560 5560 5560 5560 5559 5558 5557 5557 5557 5556 5556 5554 5554 5553 5553 5553 5553 5552 5551 5550 5549 5549 5548 5548 5547 5546 5545 5544 5543 5542 5541 5539 5539
5547 5548 5549 5550 5551 5551 5551 5550 5549 5549 5550 5550 5550 5549 5547 5547 5547 5547 5546 5545 5545 5544 5544 5543 5543 5543 5542 5541 5540 5540 5539 5538 5538 5537 5536 5535 5534 5533 5531 5530 5530 5529
5534 5534 5536 5537 5537 5538 5538 5538 5537 5538 5539 5539 5538 5537 5536 5536 5537 5536 5536 5535 5535 5534 5534 5533 5533 5532 5532 5530 5530 5530 5530 5529 5528 5528 5527 5526 5524 5523 5522 5521 5520 5519
5521 5522 5523 5524 5524 5524 5525 5525 5526 5526 5527 5526 5526 5525 5525 5526 5526 5525 5525 5525 5524 5524 5523 5522 5522 5522 5521 5520 5520 5520 5520 5519 5519 5518 5517 5516 5515 5513 5513 5512 5511 5510
5509 5510 5511 5512 5512 5513 5513 5514 5514 5515 5515 5514 5514 5513 5514 5514 5514 5514 5514 5514 5513 5513 5512 5512 5513 5512 5511 5510 5511 5511 5510 5510 5509 5508 5507 5507 5506 5505 5504 5503 5502 5502
5497 5498 5500 5501 5502 5503 5503 5503 5503 5503 5503 5503 5502 5503 5503 5503 5503 5503 5503 5503 5503 5503 5502 5502 5503 5502 5501 5501 5501 5502 5501 5501 5500 5500 5499 5497 5496 5496 5495 5494 5494 5493
5485 5487 5488 5489 5491 5492 5492 5492 5492 5492 5493 5492 5493 5493 5493 5493 5493 5492 5492 5493 5493 5493 5493 5493 5493 5492 5491 5491 5492 5492 5493 5493 5492 5491 5489 5488 5487 5487 5486 5486 5485 5484
5472 5474 5476 5478 5479 5480 5480 5480 5481 5481 5482 5482 5482 5483 5483 5482 5483 5482 5482 5483 5483 5483 5483 5483 5483 5482 5480 5481 5482 5483 5484 5484 5482 5480 5479 5479 5478 5477 5477 5476 5475 5474
5461 5462 5464 5465 5467 5468 5468 5469 5470 5469 5470 5470 5470 5471 5471 5471 5472 5472 5472 5473 5473 5473 5472 5472 5473 5472 5470 5472 5473 5473 5475 5474 5472 5471 5470 5470 5469 5468 5468 5467 5466 5465
5449 5450 5451 5453 5455 5456 5457 5457 5458 5457 5458 5458 5458 5459 5460 5461 5461 5461 5462 5462 5462 5462 5462 5462 5463 5461 5460 5462 5463 5463 5464 5464 5462 5461 5461 5461 5460 5459 5458 5457 5456 5456